Roanoke, VA

3:52 AM EDT on May 30, 2017 (GMT -0400)
Roanoke Regional-Woodrum

Weather History for KROA - January, 2014

Change the Weather History Date:

Saturday, January 25, 2014

  Actual Average Record
Temperature  
Mean Temperature 26 °F 37 °F  
Max Temperature 35 °F 46 °F 81 °F (1943)
Min Temperature 16 °F 28 °F 6 °F (1963)
Degree Days  
Heating Degree Days 39 28  
Month to date heating degree days 842 717  
Since 1 July heating degree days 2409 2327  
Cooling Degree Days 0 0  
Month to date cooling degree days 0 0  
Year to date cooling degree days 0 0  
Moisture  
Dew Point 8 °F    
Average Humidity 49    
Maximum Humidity 63    
Minimum Humidity 34    
Precipitation  
Precipitation T in 0.09 in 1.86 in (1978)
Month to date precipitation 1.76 2.35  
Year to date precipitation 1.76 2.35  
Snow  
Snow T in - - ()
Month to date snowfall 1.4  
Since 1 July snowfall 1.4  
Snow Depth 0.00 in    
Sea Level Pressure  
Sea Level Pressure 29.79 in    
Wind  
Wind Speed 11 mph (SW)    
Max Wind Speed 32 mph    
Max Gust Speed 43 mph    
Visibility 10 miles    
Events Snow    
T = Trace of Precipitation, MM = Missing Value Source: NWS Daily Summary

Daily Weather History Graph

Daily Weather History Graph

Search for Another Location

Airport or City:

Trip Planner

Search our weather history database for the weather conditions in past years. The results will help you decide how hot, cold, wet, or windy it might be!

Date:

Astronomy

Jan. 25, 2014 Rise Set
Actual Time 7:28 AM EST 5:36 PM EST
Civil Twilight 7:00 AM EST 6:04 PM EST
Nautical Twilight 6:28 AM EST 6:36 PM EST
Astronomical Twilight 5:57 AM EST 7:07 PM EST
Moon 1:59 AM EST (1/25) 12:35 PM EST (1/25)
Length of Visible Light 11h 04m
Length of Day
10h 08m
Waning Crescent, 34% of the Moon is Illuminated
Jan 25
Waning Crescent
Jan 30
New
Feb 6
First Quarter
Feb 14
Full
Feb 22
Last Quarter

Hourly Weather History & Observations

Time (EST) Temp. Windchill Dew Point Humidity Pressure Visibility Wind Dir Wind Speed Gust Speed Precip Events Conditions
12:54 AM 18.0 °F 12.7 °F -2.9 °F 40% 30.11 in 10.0 mi South 3.5 mph - N/A   Clear
1:54 AM 17.1 °F - -0.9 °F 45% 30.06 in 10.0 mi Calm Calm - N/A   Clear
2:54 AM 17.1 °F - -0.9 °F 45% 30.02 in 10.0 mi Calm Calm - N/A   Clear
3:54 AM 18.0 °F 12.7 °F -0.9 °F 44% 29.97 in 10.0 mi SW 3.5 mph - N/A   Clear
4:54 AM 19.0 °F 11.1 °F -0.9 °F 42% 29.94 in 10.0 mi SW 5.8 mph - N/A   Clear
5:54 AM 19.9 °F 12.1 °F -2.0 °F 38% 29.90 in 10.0 mi SSW 5.8 mph - N/A   Clear
6:54 AM 19.9 °F - 1.0 °F 44% 29.88 in 10.0 mi Calm Calm - N/A   Overcast
7:54 AM 19.9 °F 11.1 °F 1.0 °F 44% 29.84 in 10.0 mi SE 6.9 mph - N/A   Mostly Cloudy
8:54 AM 21.0 °F 11.4 °F 1.9 °F 44% 29.81 in 10.0 mi SE 8.1 mph - N/A   Overcast
9:54 AM 23.0 °F 12.4 °F 1.9 °F 40% 29.77 in 10.0 mi SE 10.4 mph - N/A   Overcast
10:54 AM 25.0 °F 16.3 °F 1.9 °F 37% 29.74 in 10.0 mi SE 8.1 mph - N/A   Overcast
11:54 AM 28.0 °F 18.1 °F 3.9 °F 36% 29.69 in 10.0 mi South 11.5 mph - N/A   Overcast
12:54 PM 32.0 °F 20.5 °F 18.0 °F 56% 29.63 in 10.0 mi WSW 18.4 mph 27.6 mph N/A   Overcast
1:54 PM 30.9 °F 19.4 °F 19.0 °F 61% 29.60 in 10.0 mi WSW 17.3 mph 29.9 mph N/A   Overcast
2:54 PM 32.0 °F 21.6 °F 19.0 °F 59% 29.60 in 10.0 mi WSW 15.0 mph 23.0 mph N/A   Overcast
3:54 PM 34.0 °F 22.7 °F 17.1 °F 50% 29.60 in 10.0 mi West 19.6 mph 29.9 mph N/A   Mostly Cloudy
4:54 PM 32.0 °F 20.8 °F 17.1 °F 54% 29.63 in 10.0 mi West 17.3 mph 27.6 mph N/A   Mostly Cloudy
5:54 PM 30.9 °F 22.2 °F 15.1 °F 52% 29.64 in 10.0 mi West 10.4 mph 25.3 mph N/A   Scattered Clouds
6:54 PM 30.0 °F 17.5 °F 17.1 °F 59% 29.67 in 10.0 mi WSW 19.6 mph 27.6 mph N/A   Scattered Clouds
7:54 PM 28.9 °F 19.2 °F 18.0 °F 64% 29.67 in 10.0 mi WSW 11.5 mph 18.4 mph N/A   Scattered Clouds
8:54 PM 30.0 °F 21.1 °F 18.0 °F 61% 29.70 in 8.0 mi WSW 10.4 mph - 0.00 in Snow Light Snow
9:54 PM 32.0 °F 20.8 °F 14.0 °F 48% 29.71 in 10.0 mi WNW 17.3 mph 25.3 mph 0.00 in   Scattered Clouds
10:54 PM 30.0 °F 17.2 °F 14.0 °F 51% 29.77 in 10.0 mi WNW 20.7 mph 36.8 mph 0.00 in   Mostly Cloudy
11:54 PM 28.0 °F 16.1 °F 10.9 °F 49% 29.81 in 10.0 mi NW 16.1 mph 21.9 mph N/A   Partly Cloudy